Flag for Germany Weather past 2 weeks in Apolda, Thuringia, Germany

Now
46 °F

Overcast.


Feels Like: 45 °F
Forecast: 45 / 57 °F
Wind: 3 mph from Southwest

Location: Erfurt-Bindersleben

Current Time: Oct 25, 2014 at 10:46:22 AM

Latest Report: Oct 25, 2014 at 10:00 AM


Visibility: 14 mi

Pressure: 30.13 "Hg

Humidity: 89%

Dew point: 43 °F

Location of ApoldaLocation

Historic Weather in Apolda — Graph

°F

Apolda temperature yesterday

Maximum temperature yesterday: 57 °F (at 2:00 PM)
Minimum temperature yesterday: 37 °F (at 4:00 AM)
Average temperature yesterday: 46 °F

Past Weeks' High & Low Weather Summary

 TemperatureHumidityPressure
High67 °F (Oct 19, 2:00 PM)100% (Oct 11, 5:00 AM)30.27 "Hg (Oct 11, 5:00 AM)
Low37 °F (Oct 24, 4:00 AM)58% (Oct 15, 3:00 PM)29.47 "Hg (Oct 21, 8:00 PM)
Average54 °F86%29.94 "Hg
* Reported Oct 10 9:00 AM — Oct 25 9:00 AM, Apolda, Weather by CustomWeather, © 2014

Note: Actual official high and low records may vary slightly from our data, if they occured in-between our weather recording intervals... More about our weather records

Advertising

Apolda weather history for previous 24 hours

 ConditionsComfort  
Time TempWeatherWind HumidityBarometerVisibility
9:00 AM
Oct 25
46 °FOvercast.3 mph89%30.12 "Hg14 mi
8:00 AM45 °FOvercast.5 mph89%30.11 "Hg14 mi
7:00 AM45 °FOvercast.3 mph89%30.11 "Hg16 mi
6:00 AM45 °FOvercast.5 mph89%30.11 "Hg16 mi
5:00 AM45 °FOvercast.5 mph89%30.12 "Hg19 mi
4:00 AM45 °FOvercast.5 mph88%30.12 "Hg19 mi
3:00 AM45 °FOvercast.5 mph89%30.13 "Hg19 mi
2:00 AM44 °FOvercast.5 mph89%30.14 "Hg19 mi
1:00 AM44 °FOvercast.3 mph88%30.15 "Hg22 mi
12:00 AM45 °FOvercast.5 mph87%30.15 "Hg22 mi
11:00 PM
Oct 24
44 °FOvercast.3 mph88%30.16 "Hg22 mi
10:00 PM44 °FPassing clouds.3 mph87%30.16 "Hg22 mi
9:00 PM46 °FPassing clouds.3 mph85%30.15 "Hg25 mi
8:00 PM47 °FPassing clouds.3 mph81%30.15 "Hg31 mi
7:00 PM50 °FPassing clouds.2 mph74%30.14 "Hg31 mi
6:00 PM53 °FScattered clouds.2 mph66%30.14 "Hg31 mi
5:00 PM56 °FScattered clouds.2 mph61%30.15 "Hg31 mi
4:00 PM57 °FScattered clouds.3 mph61%30.16 "Hg31 mi
3:00 PM56 °FScattered clouds.2 mph62%30.17 "Hg31 mi
2:00 PM57 °FScattered clouds.2 mph67%30.19 "Hg31 mi
1:00 PM54 °FScattered clouds.1 mph64%30.21 "Hg25 mi
12:00 PM52 °FPassing clouds.3 mph75%30.23 "Hg22 mi
11:00 AM49 °FPassing clouds.3 mph82%30.24 "Hg25 mi
10:00 AM46 °FPassing clouds.5 mph86%30.25 "Hg25 mi
Weather by CustomWeather, © 2014

See weather overviewHow to use our weather pages